Location: Bjelajci
(45.0103°N, 16.1758°E)
Time: 19:59:04
(UTC+00:00)

Cosmos 1271 Rocket - Pass Details

Date: 14 July 2020
Orbit: 497 x 546 km, 81.2° (Epoch: 05 August)

Event Time Altitude Azimuth Distance (km) Brightness Sun altitude
Rises 02:41:06 0° 344° (NNW) 2,624 6.6 -6.7°
Reaches altitude 10° 02:43:18 10° 338° (NNW) 1,727 5.6 -6.4°
Maximum altitude 02:46:56 47° 264° (W) 677 3.0 -5.9°
Drops below altitude 10° 02:50:30 10° 190° (S) 1,697 4.9 -5.4°
Sets 02:52:39 0° 185° (S) 2,573 5.8 -5.1°
